Location: Harwich
(41.7160°N, 69.9939°W)
Time: 00:54:06
(UTC+02:00)

Vanguard 1 Rocket - Pass Details

Date: 26 July 2024
Orbit: 650 x 4218 km, 34.3° (Epoch: 02 October)

Event Time Altitude Azimuth Distance (km) Brightness Sun altitude
Rises 02:56:55 0° 261° (W) 2,962 10.8 -9.1°
Reaches altitude 10° 02:59:15 10° 250° (WSW) 2,053 9.7 -9.5°
Maximum altitude 03:03:14 33° 186° (S) 1,215 7.8 -10.1°
Enters shadow 03:07:22 14° 127° (SE) 2,294 8.8 -10.7°
